Year,Month,Day,Hour,Minute,Value (Times are PST for temperature in C)
2013,08,23,00,00,14.70
2013,08,23,00,01,14.70
2013,08,23,00,02,14.70
2013,08,23,00,03,14.70
2013,08,23,00,04,14.70
2013,08,23,00,05,14.70
2013,08,23,00,06,14.70
2013,08,23,00,07,14.70
2013,08,23,00,08,14.70
2013,08,23,00,09,14.70
2013,08,23,00,10,14.70
2013,08,23,00,11,14.70
2013,08,23,00,12,14.70
2013,08,23,00,13,14.70
2013,08,23,00,14,14.70
2013,08,23,00,15,14.70
2013,08,23,00,16,14.70
2013,08,23,00,17,14.70
2013,08,23,00,18,14.60
2013,08,23,00,19,14.60
2013,08,23,00,20,14.60
2013,08,23,00,21,14.60
2013,08,23,00,22,14.60
2013,08,23,00,23,14.60
2013,08,23,00,24,14.60
2013,08,23,00,25,14.60
2013,08,23,00,26,14.60
2013,08,23,00,27,14.60
2013,08,23,00,28,14.60
2013,08,23,00,29,14.60
2013,08,23,00,30,14.60
2013,08,23,00,31,14.60
2013,08,23,00,32,14.60
2013,08,23,00,33,14.60
2013,08,23,00,34,14.60
2013,08,23,00,35,14.60
2013,08,23,00,36,14.60
2013,08,23,00,37,14.60
2013,08,23,00,38,14.50
2013,08,23,00,39,14.50
2013,08,23,00,40,14.50
2013,08,23,00,41,14.50
2013,08,23,00,42,14.40
2013,08,23,00,43,14.40
2013,08,23,00,44,14.40
2013,08,23,00,45,14.40
2013,08,23,00,46,14.40
2013,08,23,00,47,14.30
2013,08,23,00,48,14.30
2013,08,23,00,49,14.30
2013,08,23,00,50,14.30
2013,08,23,00,51,14.30
2013,08,23,00,52,14.30
2013,08,23,00,53,14.30
2013,08,23,00,54,14.20
2013,08,23,00,55,14.20
2013,08,23,00,56,14.20
2013,08,23,00,57,14.20
2013,08,23,00,58,14.20
2013,08,23,00,59,14.20
2013,08,23,01,00,14.10
2013,08,23,01,01,14.10
2013,08,23,01,02,14.10
2013,08,23,01,03,14.10
2013,08,23,01,04,14.10
2013,08,23,01,05,14.10
2013,08,23,01,06,14.10
2013,08,23,01,07,14.10
2013,08,23,01,08,14.00
2013,08,23,01,09,14.00
2013,08,23,01,10,14.00
2013,08,23,01,11,14.00
2013,08,23,01,12,14.00
2013,08,23,01,13,13.90
2013,08,23,01,14,13.90
2013,08,23,01,15,13.90
2013,08,23,01,16,13.90
2013,08,23,01,17,13.90
2013,08,23,01,18,13.90
2013,08,23,01,19,13.90
2013,08,23,01,20,13.90
2013,08,23,01,21,13.90
2013,08,23,01,22,13.90
2013,08,23,01,23,13.90
2013,08,23,01,24,13.90
2013,08,23,01,25,13.90
2013,08,23,01,26,13.80
2013,08,23,01,27,13.80
2013,08,23,01,28,13.80
2013,08,23,01,29,13.80
2013,08,23,01,30,13.80
2013,08,23,01,31,13.80
2013,08,23,01,32,13.70
2013,08,23,01,33,13.70
2013,08,23,01,34,13.70
2013,08,23,01,35,13.70
2013,08,23,01,36,13.70
2013,08,23,01,37,13.70
2013,08,23,01,38,13.60
2013,08,23,01,39,13.60
2013,08,23,01,40,13.60
2013,08,23,01,41,13.50
2013,08,23,01,42,13.50
2013,08,23,01,43,13.50
2013,08,23,01,44,13.40
2013,08,23,01,45,13.40
2013,08,23,01,46,13.40
2013,08,23,01,47,13.30
2013,08,23,01,48,13.30
2013,08,23,01,49,13.20
2013,08,23,01,50,13.20
2013,08,23,01,51,13.20
2013,08,23,01,52,13.20
2013,08,23,01,53,13.10
2013,08,23,01,54,13.10
2013,08,23,01,55,13.10
2013,08,23,01,56,13.10
2013,08,23,01,57,13.10
2013,08,23,01,58,13.10
2013,08,23,01,59,13.10
2013,08,23,02,00,13.10
2013,08,23,02,01,13.10
2013,08,23,02,02,13.10
2013,08,23,02,03,13.00
2013,08,23,02,04,13.00
2013,08,23,02,05,13.00
2013,08,23,02,06,13.00
2013,08,23,02,07,13.00
2013,08,23,02,08,13.00
2013,08,23,02,09,13.00
2013,08,23,02,10,13.10
2013,08,23,02,11,13.10
2013,08,23,02,12,13.10
2013,08,23,02,13,13.10
2013,08,23,02,14,13.00
2013,08,23,02,15,13.00
2013,08,23,02,16,13.00
2013,08,23,02,17,12.90
2013,08,23,02,18,12.90
2013,08,23,02,19,12.90
2013,08,23,02,20,12.90
2013,08,23,02,21,12.90
2013,08,23,02,22,12.90
2013,08,23,02,23,12.90
2013,08,23,02,24,12.90
2013,08,23,02,25,12.90
2013,08,23,02,26,12.90
2013,08,23,02,27,12.90
2013,08,23,02,28,12.90
2013,08,23,02,29,12.90
2013,08,23,02,30,12.80
2013,08,23,02,31,12.80
2013,08,23,02,32,12.80
2013,08,23,02,33,12.80
2013,08,23,02,34,12.80
2013,08,23,02,35,12.80
2013,08,23,02,36,12.80
2013,08,23,02,37,12.90
2013,08,23,02,38,12.90
2013,08,23,02,39,12.90
2013,08,23,02,40,12.90
2013,08,23,02,41,12.90
2013,08,23,02,42,12.90
2013,08,23,02,43,12.80
2013,08,23,02,44,12.80
2013,08,23,02,45,12.80
2013,08,23,02,46,12.80
2013,08,23,02,47,12.80
2013,08,23,02,48,12.80
2013,08,23,02,49,12.70
2013,08,23,02,50,12.70
2013,08,23,02,51,12.70
2013,08,23,02,52,12.70
2013,08,23,02,53,12.70
2013,08,23,02,54,12.70
2013,08,23,02,55,12.60
2013,08,23,02,56,12.60
2013,08,23,02,57,12.60
2013,08,23,02,58,12.60
2013,08,23,02,59,12.50
2013,08,23,03,00,12.50
2013,08,23,03,01,12.50
2013,08,23,03,02,12.40
2013,08,23,03,03,12.40
2013,08,23,03,04,12.30
2013,08,23,03,05,12.30
2013,08,23,03,06,12.20
2013,08,23,03,07,12.20
2013,08,23,03,08,12.20
2013,08,23,03,09,12.20
2013,08,23,03,10,12.20
2013,08,23,03,11,12.20
2013,08,23,03,12,12.20
2013,08,23,03,13,12.20
2013,08,23,03,14,12.20
2013,08,23,03,15,12.20
2013,08,23,03,16,12.20
2013,08,23,03,17,12.30
2013,08,23,03,18,12.30
2013,08,23,03,19,12.30
2013,08,23,03,20,12.30
2013,08,23,03,21,12.30
2013,08,23,03,22,12.30
2013,08,23,03,23,12.30
2013,08,23,03,24,12.30
2013,08,23,03,25,12.30
2013,08,23,03,26,12.30
2013,08,23,03,27,12.30
2013,08,23,03,28,12.30
2013,08,23,03,29,12.30
2013,08,23,03,30,12.30
2013,08,23,03,31,12.30
2013,08,23,03,32,12.30
2013,08,23,03,33,12.30
2013,08,23,03,34,12.30
2013,08,23,03,35,12.30
2013,08,23,03,36,12.30
2013,08,23,03,37,12.30
2013,08,23,03,38,12.30
2013,08,23,03,39,12.30
2013,08,23,03,40,12.30
2013,08,23,03,41,12.20
2013,08,23,03,42,12.20
2013,08,23,03,43,12.20
2013,08,23,03,44,12.20
2013,08,23,03,45,12.20
2013,08,23,03,46,12.10
2013,08,23,03,47,12.10
2013,08,23,03,48,12.10
2013,08,23,03,49,12.10
2013,08,23,03,50,12.10
2013,08,23,03,51,12.00
2013,08,23,03,52,12.00
2013,08,23,03,53,12.00
2013,08,23,03,54,11.90
2013,08,23,03,55,11.90
2013,08,23,03,56,11.90
2013,08,23,03,57,11.90
2013,08,23,03,58,11.90
2013,08,23,03,59,11.90
2013,08,23,04,00,11.80
2013,08,23,04,01,11.80
2013,08,23,04,02,11.70
2013,08,23,04,03,11.70
2013,08,23,04,04,11.60
2013,08,23,04,05,11.60
2013,08,23,04,06,11.50
2013,08,23,04,07,11.50
2013,08,23,04,08,11.50
2013,08,23,04,09,11.50
2013,08,23,04,10,11.50
2013,08,23,04,11,11.40
2013,08,23,04,12,11.40
2013,08,23,04,13,11.40
2013,08,23,04,14,11.40
2013,08,23,04,15,11.40
2013,08,23,04,16,11.40
2013,08,23,04,17,11.40
2013,08,23,04,18,11.40
2013,08,23,04,19,11.40
2013,08,23,04,20,11.40
2013,08,23,04,21,11.40
2013,08,23,04,22,11.40
2013,08,23,04,23,11.40
2013,08,23,04,24,11.40
2013,08,23,04,25,11.50
2013,08,23,04,26,11.50
2013,08,23,04,27,11.50
2013,08,23,04,28,11.50
2013,08,23,04,29,11.50
2013,08,23,04,30,11.50
2013,08,23,04,31,11.50
2013,08,23,04,32,11.50
2013,08,23,04,33,11.50
2013,08,23,04,34,11.50
2013,08,23,04,35,11.50
2013,08,23,04,36,11.60
2013,08,23,04,37,11.60
2013,08,23,04,38,11.60
2013,08,23,04,39,11.60
2013,08,23,04,40,11.70
2013,08,23,04,41,11.60
2013,08,23,04,42,11.60
2013,08,23,04,43,11.60
2013,08,23,04,44,11.60
2013,08,23,04,45,11.60
2013,08,23,04,46,11.60
2013,08,23,04,47,11.60
2013,08,23,04,48,11.60
2013,08,23,04,49,11.60
2013,08,23,04,50,11.60
2013,08,23,04,51,11.60
2013,08,23,04,52,11.60
2013,08,23,04,53,11.60
2013,08,23,04,54,11.60
2013,08,23,04,55,11.60
2013,08,23,04,56,11.60
2013,08,23,04,57,11.60
2013,08,23,04,58,11.60
2013,08,23,04,59,11.60
2013,08,23,05,00,11.60
2013,08,23,05,01,11.60
2013,08,23,05,02,11.60
2013,08,23,05,03,11.60
2013,08,23,05,04,11.60
2013,08,23,05,05,11.60
2013,08,23,05,06,11.60
2013,08,23,05,07,11.60
2013,08,23,05,08,11.60
2013,08,23,05,09,11.60
2013,08,23,05,10,11.60
2013,08,23,05,11,11.60
2013,08,23,05,12,11.60
2013,08,23,05,13,11.60
2013,08,23,05,14,11.60
2013,08,23,05,15,11.60
2013,08,23,05,16,11.60
2013,08,23,05,17,11.60
2013,08,23,05,18,11.50
2013,08,23,05,19,11.50
2013,08,23,05,20,11.40
2013,08,23,05,21,11.30
2013,08,23,05,22,11.30
2013,08,23,05,23,11.30
2013,08,23,05,24,11.30
2013,08,23,05,25,11.20
2013,08,23,05,26,11.20
2013,08,23,05,27,11.20
2013,08,23,05,28,11.10
2013,08,23,05,29,11.10
2013,08,23,05,30,11.10
2013,08,23,05,31,11.00
2013,08,23,05,32,11.00
2013,08,23,05,33,10.90
2013,08,23,05,34,10.90
2013,08,23,05,35,10.90
2013,08,23,05,36,10.90
2013,08,23,05,37,10.90
2013,08,23,05,38,10.90
2013,08,23,05,39,10.90
2013,08,23,05,40,10.90
2013,08,23,05,41,10.90
2013,08,23,05,42,10.90
2013,08,23,05,43,10.90
2013,08,23,05,44,10.90
2013,08,23,05,45,11.00
2013,08,23,05,46,11.00
2013,08,23,05,47,11.00
2013,08,23,05,48,11.00
2013,08,23,05,49,11.00
2013,08,23,05,50,11.00
2013,08,23,05,51,11.00
2013,08,23,05,52,11.00
2013,08,23,05,53,11.00
2013,08,23,05,54,11.00
2013,08,23,05,55,11.00
2013,08,23,05,56,11.00
2013,08,23,05,57,10.90
2013,08,23,05,58,10.90
2013,08,23,05,59,10.90
2013,08,23,06,00,10.80
2013,08,23,06,01,10.70
2013,08,23,06,02,10.70
2013,08,23,06,03,10.70
2013,08,23,06,04,10.70
2013,08,23,06,05,10.70
2013,08,23,06,06,10.70
2013,08,23,06,07,10.70
2013,08,23,06,08,10.70
2013,08,23,06,09,10.70
2013,08,23,06,10,10.80
2013,08,23,06,11,10.80
2013,08,23,06,12,10.80
2013,08,23,06,13,10.80
2013,08,23,06,14,10.80
2013,08,23,06,15,10.70
2013,08,23,06,16,10.70
2013,08,23,06,17,10.70
2013,08,23,06,18,10.70
2013,08,23,06,19,10.70
2013,08,23,06,20,10.70
2013,08,23,06,21,10.70
2013,08,23,06,22,10.70
2013,08,23,06,23,10.70
2013,08,23,06,24,10.80
2013,08,23,06,25,10.80
2013,08,23,06,26,10.80
2013,08,23,06,27,10.90
2013,08,23,06,28,10.90
2013,08,23,06,29,11.00
2013,08,23,06,30,11.00
2013,08,23,06,31,11.10
2013,08,23,06,32,11.10
2013,08,23,06,33,11.10
2013,08,23,06,34,11.20
2013,08,23,06,35,11.10
2013,08,23,06,36,11.10
2013,08,23,06,37,11.10
2013,08,23,06,38,11.00
2013,08,23,06,39,10.90
2013,08,23,06,40,10.90
2013,08,23,06,41,10.90
2013,08,23,06,42,10.80
2013,08,23,06,43,10.80
2013,08,23,06,44,10.80
2013,08,23,06,45,10.80
2013,08,23,06,46,10.80
2013,08,23,06,47,10.80
2013,08,23,06,48,10.80
2013,08,23,06,49,10.80
2013,08,23,06,50,10.80
2013,08,23,06,51,10.80
2013,08,23,06,52,10.80
2013,08,23,06,53,10.80
2013,08,23,06,54,10.80
2013,08,23,06,55,10.80
2013,08,23,06,56,10.80
2013,08,23,06,57,10.80
2013,08,23,06,58,10.80
2013,08,23,06,59,10.80
2013,08,23,07,00,10.90
2013,08,23,07,01,10.90
2013,08,23,07,02,10.90
2013,08,23,07,03,10.90
2013,08,23,07,04,10.90
2013,08,23,07,05,10.80
2013,08,23,07,06,10.80
2013,08,23,07,07,10.80
2013,08,23,07,08,10.80
2013,08,23,07,09,10.80
2013,08,23,07,10,10.80
2013,08,23,07,11,10.80
2013,08,23,07,12,10.80
2013,08,23,07,13,10.80
2013,08,23,07,14,10.80
2013,08,23,07,15,10.80
2013,08,23,07,16,10.80
2013,08,23,07,17,10.80
2013,08,23,07,18,10.80
2013,08,23,07,19,10.80
2013,08,23,07,20,10.70
2013,08,23,07,21,10.70
2013,08,23,07,22,10.70
2013,08,23,07,23,10.70
2013,08,23,07,24,10.70
2013,08,23,07,25,10.70
2013,08,23,07,26,10.70
2013,08,23,07,27,10.80
2013,08,23,07,28,10.80
2013,08,23,07,29,10.80
2013,08,23,07,30,10.80
2013,08,23,07,31,10.80
2013,08,23,07,32,10.80
2013,08,23,07,33,10.90
2013,08,23,07,34,10.90
2013,08,23,07,35,10.90
2013,08,23,07,36,10.90
2013,08,23,07,37,10.90
2013,08,23,07,38,11.00
2013,08,23,07,39,11.00
2013,08,23,07,40,11.00
2013,08,23,07,41,11.00
2013,08,23,07,42,11.10
2013,08,23,07,43,11.10
2013,08,23,07,44,11.10
2013,08,23,07,45,11.10
2013,08,23,07,46,11.10
2013,08,23,07,47,11.20
2013,08,23,07,48,11.20
2013,08,23,07,49,11.20
2013,08,23,07,50,11.30
2013,08,23,07,51,11.30
2013,08,23,07,52,11.30
2013,08,23,07,53,11.40
2013,08,23,07,54,11.40
2013,08,23,07,55,11.50
2013,08,23,07,56,11.50
2013,08,23,07,57,11.60
2013,08,23,07,58,11.60
2013,08,23,07,59,11.60
2013,08,23,08,00,11.70
2013,08,23,08,01,11.70
2013,08,23,08,02,11.80
2013,08,23,08,03,11.80
2013,08,23,08,04,11.90
2013,08,23,08,05,11.90
2013,08,23,08,06,12.00
2013,08,23,08,07,12.10
2013,08,23,08,08,12.10
2013,08,23,08,09,12.20
2013,08,23,08,10,12.30
2013,08,23,08,11,12.30
2013,08,23,08,12,12.40
2013,08,23,08,13,12.50
2013,08,23,08,14,12.50
2013,08,23,08,15,12.60
2013,08,23,08,16,12.70
2013,08,23,08,17,12.80
2013,08,23,08,18,12.90
2013,08,23,08,19,13.00
2013,08,23,08,20,13.10
2013,08,23,08,21,13.20
2013,08,23,08,22,13.30
2013,08,23,08,23,13.40
2013,08,23,08,24,13.50
2013,08,23,08,25,13.60
2013,08,23,08,26,13.70
2013,08,23,08,27,13.80
2013,08,23,08,28,13.90
2013,08,23,08,29,13.90
2013,08,23,08,30,14.00
2013,08,23,08,31,14.10
2013,08,23,08,32,14.20
2013,08,23,08,33,14.30
2013,08,23,08,34,14.40
2013,08,23,08,35,14.50
2013,08,23,08,36,14.60
2013,08,23,08,37,14.60
2013,08,23,08,38,14.70
2013,08,23,08,39,14.70
2013,08,23,08,40,14.80
2013,08,23,08,41,14.80
2013,08,23,08,42,14.90
2013,08,23,08,43,14.90
2013,08,23,08,44,15.00
2013,08,23,08,45,15.10
2013,08,23,08,46,15.10
2013,08,23,08,47,15.10
2013,08,23,08,48,15.20
2013,08,23,08,49,15.20
2013,08,23,08,50,15.30
2013,08,23,08,51,15.40
2013,08,23,08,52,15.40
2013,08,23,08,53,15.40
2013,08,23,08,54,15.50
2013,08,23,08,55,15.60
2013,08,23,08,56,15.60
2013,08,23,08,57,15.70
2013,08,23,08,58,15.80
2013,08,23,08,59,15.80
2013,08,23,09,00,15.80
2013,08,23,09,01,15.90
2013,08,23,09,02,16.00
2013,08,23,09,03,16.00
2013,08,23,09,04,16.10
2013,08,23,09,05,16.20
2013,08,23,09,06,16.20
2013,08,23,09,07,16.30
2013,08,23,09,08,16.40
2013,08,23,09,09,16.50
2013,08,23,09,10,16.60
2013,08,23,09,11,16.70
2013,08,23,09,12,16.80
2013,08,23,09,13,16.90
2013,08,23,09,14,17.00
2013,08,23,09,15,17.10
2013,08,23,09,16,17.30
2013,08,23,09,17,17.40
2013,08,23,09,18,17.50
2013,08,23,09,19,17.70
2013,08,23,09,20,17.80
2013,08,23,09,21,17.90
2013,08,23,09,22,18.10
2013,08,23,09,23,18.20
2013,08,23,09,24,18.30
2013,08,23,09,25,18.40
2013,08,23,09,26,18.50
2013,08,23,09,27,18.50
2013,08,23,09,28,18.60
2013,08,23,09,29,18.60
2013,08,23,09,30,18.70
2013,08,23,09,31,18.70
2013,08,23,09,32,18.70
2013,08,23,09,33,18.80
2013,08,23,09,34,18.80
2013,08,23,09,35,18.90
2013,08,23,09,36,18.90
2013,08,23,09,37,19.00
2013,08,23,09,38,19.00
2013,08,23,09,39,19.10
2013,08,23,09,40,19.20
2013,08,23,09,41,19.30
2013,08,23,09,42,19.30
2013,08,23,09,43,19.40
2013,08,23,09,44,19.50
2013,08,23,09,45,19.60
2013,08,23,09,46,19.70
2013,08,23,09,47,19.70
2013,08,23,09,48,19.70
2013,08,23,09,49,19.80
2013,08,23,09,50,19.80
2013,08,23,09,51,19.80
2013,08,23,09,52,19.90
2013,08,23,09,53,19.90
2013,08,23,09,54,20.00
2013,08,23,09,55,20.00
2013,08,23,09,56,20.10
2013,08,23,09,57,20.10
2013,08,23,09,58,20.20
2013,08,23,09,59,20.30
2013,08,23,10,00,20.50
2013,08,23,10,01,20.60
2013,08,23,10,02,20.70
2013,08,23,10,03,20.80
2013,08,23,10,04,20.90
2013,08,23,10,05,21.00
2013,08,23,10,06,21.10
2013,08,23,10,07,21.20
2013,08,23,10,08,21.20
2013,08,23,10,09,21.30
2013,08,23,10,10,21.30
2013,08,23,10,11,21.30
2013,08,23,10,12,21.30
2013,08,23,10,13,21.20
2013,08,23,10,14,21.20
2013,08,23,10,15,21.30
2013,08,23,10,16,21.30
2013,08,23,10,17,21.40
2013,08,23,10,18,21.50
2013,08,23,10,19,21.50
2013,08,23,10,20,21.60
2013,08,23,10,21,21.60
2013,08,23,10,22,21.70
2013,08,23,10,23,21.70
2013,08,23,10,24,21.80
2013,08,23,10,25,21.80
2013,08,23,10,26,21.80
2013,08,23,10,27,21.80
2013,08,23,10,28,21.70
2013,08,23,10,29,21.70
2013,08,23,10,30,21.60
2013,08,23,10,31,21.50
2013,08,23,10,32,21.40
2013,08,23,10,33,21.30
2013,08,23,10,34,21.20
2013,08,23,10,35,21.20
2013,08,23,10,36,21.20
2013,08,23,10,37,21.20
2013,08,23,10,38,21.10
2013,08,23,10,39,21.10
2013,08,23,10,40,21.10
2013,08,23,10,41,21.10
2013,08,23,10,42,21.10
2013,08,23,10,43,21.10
2013,08,23,10,44,21.10
2013,08,23,10,45,21.10
2013,08,23,10,46,21.10
2013,08,23,10,47,21.10
2013,08,23,10,48,21.10
2013,08,23,10,49,21.10
2013,08,23,10,50,21.00
2013,08,23,10,51,20.90
2013,08,23,10,52,20.90
2013,08,23,10,53,20.80
2013,08,23,10,54,20.80
2013,08,23,10,55,20.80
2013,08,23,10,56,20.80
2013,08,23,10,57,20.80
2013,08,23,10,58,20.80
2013,08,23,10,59,20.70
2013,08,23,11,00,20.60
2013,08,23,11,01,20.60
2013,08,23,11,02,20.60
2013,08,23,11,03,20.70
2013,08,23,11,04,20.70
2013,08,23,11,05,20.70
2013,08,23,11,06,20.70
2013,08,23,11,07,20.80
2013,08,23,11,08,20.80
2013,08,23,11,09,20.90
2013,08,23,11,10,20.90
2013,08,23,11,11,20.90
2013,08,23,11,12,20.90
2013,08,23,11,13,21.00
2013,08,23,11,14,21.00
2013,08,23,11,15,21.10
2013,08,23,11,16,21.10
2013,08,23,11,17,21.20
2013,08,23,11,18,21.10
2013,08,23,11,19,21.10
2013,08,23,11,20,21.00
2013,08,23,11,21,21.00
2013,08,23,11,22,20.90
2013,08,23,11,23,20.90
2013,08,23,11,24,20.90
2013,08,23,11,25,20.80
2013,08,23,11,26,20.80
2013,08,23,11,27,20.80
2013,08,23,11,28,20.80
2013,08,23,11,29,20.90
2013,08,23,11,30,20.90
2013,08,23,11,31,20.90
2013,08,23,11,32,20.90
2013,08,23,11,33,21.00
2013,08,23,11,34,21.00
2013,08,23,11,35,21.00
2013,08,23,11,36,21.00
2013,08,23,11,37,21.00
2013,08,23,11,38,21.00
2013,08,23,11,39,21.00
2013,08,23,11,40,21.00
2013,08,23,11,41,21.00
2013,08,23,11,42,21.00
2013,08,23,11,43,21.00
2013,08,23,11,44,21.00
2013,08,23,11,45,21.10
2013,08,23,11,46,21.10
2013,08,23,11,47,21.10
2013,08,23,11,48,21.20
2013,08,23,11,49,21.20
2013,08,23,11,50,21.30
2013,08,23,11,51,21.30
2013,08,23,11,52,21.30
2013,08,23,11,53,21.40
2013,08,23,11,54,21.40
2013,08,23,11,55,21.50
2013,08,23,11,56,21.50
2013,08,23,11,57,21.60
2013,08,23,11,58,21.60
2013,08,23,11,59,21.70
2013,08,23,12,00,21.60
2013,08,23,12,01,21.60
2013,08,23,12,02,21.60
2013,08,23,12,03,21.60
2013,08,23,12,04,21.60
2013,08,23,12,05,21.60
2013,08,23,12,06,21.60
2013,08,23,12,07,21.60
2013,08,23,12,08,21.70
2013,08,23,12,09,21.70
2013,08,23,12,10,21.70
2013,08,23,12,11,21.70
2013,08,23,12,12,21.80
2013,08,23,12,13,21.80
2013,08,23,12,14,21.80
2013,08,23,12,15,21.90
2013,08,23,12,16,21.90
2013,08,23,12,17,21.90
2013,08,23,12,18,22.00
2013,08,23,12,19,22.00
2013,08,23,12,20,22.00
2013,08,23,12,21,21.90
2013,08,23,12,22,21.90
2013,08,23,12,23,21.80
2013,08,23,12,24,21.70
2013,08,23,12,25,21.60
2013,08,23,12,26,21.50
2013,08,23,12,27,21.50
2013,08,23,12,28,21.50
2013,08,23,12,29,21.50
2013,08,23,12,30,21.30
2013,08,23,12,31,21.20
2013,08,23,12,32,21.10
2013,08,23,12,33,21.00
2013,08,23,12,34,20.90
2013,08,23,12,35,20.90
2013,08,23,12,36,20.90
2013,08,23,12,37,20.80
2013,08,23,12,38,20.80
2013,08,23,12,39,20.80
2013,08,23,12,40,20.80
2013,08,23,12,41,20.80
2013,08,23,12,42,20.80
2013,08,23,12,43,20.80
2013,08,23,12,44,20.80
2013,08,23,12,45,20.70
2013,08,23,12,46,20.60
2013,08,23,12,47,20.50
2013,08,23,12,48,20.50
2013,08,23,12,49,20.40
2013,08,23,12,50,20.40
2013,08,23,12,51,20.40
2013,08,23,12,52,20.40
2013,08,23,12,53,20.30
2013,08,23,12,54,20.30
2013,08,23,12,55,20.20
2013,08,23,12,56,20.20
2013,08,23,12,57,20.20
2013,08,23,12,58,20.20
2013,08,23,12,59,20.20
2013,08,23,13,00,20.20
2013,08,23,13,01,20.20
2013,08,23,13,02,20.10
2013,08,23,13,03,20.00
2013,08,23,13,04,19.90
2013,08,23,13,05,19.80
2013,08,23,13,06,19.80
2013,08,23,13,07,19.70
2013,08,23,13,08,19.70
2013,08,23,13,09,19.70
2013,08,23,13,10,19.70
2013,08,23,13,11,19.70
2013,08,23,13,12,19.70
2013,08,23,13,13,19.70
2013,08,23,13,14,19.70
2013,08,23,13,15,19.80
2013,08,23,13,16,19.80
2013,08,23,13,17,19.70
2013,08,23,13,18,19.70
2013,08,23,13,19,19.70
2013,08,23,13,20,19.70
2013,08,23,13,21,19.70
2013,08,23,13,22,19.70
2013,08,23,13,23,19.70
2013,08,23,13,24,19.70
2013,08,23,13,25,19.70
2013,08,23,13,26,19.70
2013,08,23,13,27,19.70
2013,08,23,13,28,19.70
2013,08,23,13,29,19.70
2013,08,23,13,30,19.70
2013,08,23,13,31,19.70
2013,08,23,13,32,19.70
2013,08,23,13,33,19.70
2013,08,23,13,34,19.70
2013,08,23,13,35,19.70
2013,08,23,13,36,19.70
2013,08,23,13,37,19.70
2013,08,23,13,38,19.70
2013,08,23,13,39,19.70
2013,08,23,13,40,19.80
2013,08,23,13,41,19.80
2013,08,23,13,42,19.80
2013,08,23,13,43,19.80
2013,08,23,13,44,19.80
2013,08,23,13,45,19.80
2013,08,23,13,46,19.80
2013,08,23,13,47,19.80
2013,08,23,13,48,19.80
2013,08,23,13,49,19.80
2013,08,23,13,50,19.80
2013,08,23,13,51,19.90
2013,08,23,13,52,19.90
2013,08,23,13,53,20.00
2013,08,23,13,54,20.00
2013,08,23,13,55,20.10
2013,08,23,13,56,20.10
2013,08,23,13,57,20.10
2013,08,23,13,58,20.20
2013,08,23,13,59,20.20
2013,08,23,14,00,20.30
2013,08,23,14,01,20.30
2013,08,23,14,02,20.40
2013,08,23,14,03,20.50
2013,08,23,14,04,20.50
2013,08,23,14,05,20.60
2013,08,23,14,06,20.70
2013,08,23,14,07,20.70
2013,08,23,14,08,20.80
2013,08,23,14,09,20.80
2013,08,23,14,10,20.90
2013,08,23,14,11,20.90
2013,08,23,14,12,21.00
2013,08,23,14,13,21.10
2013,08,23,14,14,21.10
2013,08,23,14,15,21.10
2013,08,23,14,16,21.20
2013,08,23,14,17,21.20
2013,08,23,14,18,21.20
2013,08,23,14,19,21.20
2013,08,23,14,20,21.20
2013,08,23,14,21,21.20
2013,08,23,14,22,21.10
2013,08,23,14,23,21.10
2013,08,23,14,24,21.10
2013,08,23,14,25,21.10
2013,08,23,14,26,21.10
2013,08,23,14,27,21.10
2013,08,23,14,28,21.10
2013,08,23,14,29,21.10
2013,08,23,14,30,21.10
2013,08,23,14,31,21.10
2013,08,23,14,32,21.10
2013,08,23,14,33,21.10
2013,08,23,14,34,21.20
2013,08,23,14,35,21.20
2013,08,23,14,36,21.20
2013,08,23,14,37,21.30
2013,08,23,14,38,21.30
2013,08,23,14,39,21.40
2013,08,23,14,40,21.40
2013,08,23,14,41,21.50
2013,08,23,14,42,21.60
2013,08,23,14,43,21.60
2013,08,23,14,44,21.70
2013,08,23,14,45,21.70
2013,08,23,14,46,21.80
2013,08,23,14,47,21.80
2013,08,23,14,48,21.80
2013,08,23,14,49,21.90
2013,08,23,14,50,21.90
2013,08,23,14,51,21.90
2013,08,23,14,52,22.00
2013,08,23,14,53,22.00
2013,08,23,14,54,22.00
2013,08,23,14,55,22.00
2013,08,23,14,56,21.90
2013,08,23,14,57,21.90
2013,08,23,14,58,21.90
2013,08,23,14,59,21.90
2013,08,23,15,00,21.90
2013,08,23,15,01,21.90
2013,08,23,15,02,21.90
2013,08,23,15,03,21.80
2013,08,23,15,04,21.80
2013,08,23,15,05,21.80
2013,08,23,15,06,21.70
2013,08,23,15,07,21.70
2013,08,23,15,08,21.70
2013,08,23,15,09,21.60
2013,08,23,15,10,21.50
2013,08,23,15,11,21.50
2013,08,23,15,12,21.40
2013,08,23,15,13,21.40
2013,08,23,15,14,21.40
2013,08,23,15,15,21.40
2013,08,23,15,16,21.30
2013,08,23,15,17,21.30
2013,08,23,15,18,21.30
2013,08,23,15,19,21.30
2013,08,23,15,20,21.20
2013,08,23,15,21,21.20
2013,08,23,15,22,21.20
2013,08,23,15,23,21.10
2013,08,23,15,24,21.10
2013,08,23,15,25,21.00
2013,08,23,15,26,21.00
2013,08,23,15,27,20.90
2013,08,23,15,28,20.80
2013,08,23,15,29,20.70
2013,08,23,15,30,20.60
2013,08,23,15,31,20.50
2013,08,23,15,32,20.40
2013,08,23,15,33,20.30
2013,08,23,15,34,20.20
2013,08,23,15,35,20.10
2013,08,23,15,36,20.00
2013,08,23,15,37,20.00
2013,08,23,15,38,19.90
2013,08,23,15,39,19.90
2013,08,23,15,40,19.80
2013,08,23,15,41,19.70
2013,08,23,15,42,19.70
2013,08,23,15,43,19.60
2013,08,23,15,44,19.60
2013,08,23,15,45,19.50
2013,08,23,15,46,19.50
2013,08,23,15,47,19.50
2013,08,23,15,48,19.40
2013,08,23,15,49,19.40
2013,08,23,15,50,19.40
2013,08,23,15,51,19.40
2013,08,23,15,52,19.30
2013,08,23,15,53,19.30
2013,08,23,15,54,19.30
2013,08,23,15,55,19.30
2013,08,23,15,56,19.30
2013,08,23,15,57,19.20
2013,08,23,15,58,19.20
2013,08,23,15,59,19.20
2013,08,23,16,00,19.20
2013,08,23,16,01,19.10
2013,08,23,16,02,19.10
2013,08,23,16,03,19.10
2013,08,23,16,04,19.10
2013,08,23,16,05,19.00
2013,08,23,16,06,19.00
2013,08,23,16,07,18.90
2013,08,23,16,08,18.90
2013,08,23,16,09,18.80
2013,08,23,16,10,18.80
2013,08,23,16,11,18.80
2013,08,23,16,12,18.80
2013,08,23,16,13,18.80
2013,08,23,16,14,18.70
2013,08,23,16,15,18.70
2013,08,23,16,16,18.70
2013,08,23,16,17,18.70
2013,08,23,16,18,18.70
2013,08,23,16,19,18.80
2013,08,23,16,20,18.80
2013,08,23,16,21,18.80
2013,08,23,16,22,18.80
2013,08,23,16,23,18.90
2013,08,23,16,24,18.90
2013,08,23,16,25,19.00
2013,08,23,16,26,19.10
2013,08,23,16,27,19.20
2013,08,23,16,28,19.20
2013,08,23,16,29,19.30
2013,08,23,16,30,19.40
2013,08,23,16,31,19.50
2013,08,23,16,32,19.70
2013,08,23,16,33,19.80
2013,08,23,16,34,20.00
2013,08,23,16,35,20.20
2013,08,23,16,36,20.40
2013,08,23,16,37,20.60
2013,08,23,16,38,20.70
2013,08,23,16,39,20.70
2013,08,23,16,40,20.80
2013,08,23,16,41,20.80
2013,08,23,16,42,20.70
2013,08,23,16,43,20.60
2013,08,23,16,44,20.60
2013,08,23,16,45,20.60
2013,08,23,16,46,20.60
2013,08,23,16,47,20.60
2013,08,23,16,48,20.60
2013,08,23,16,49,20.70
2013,08,23,16,50,20.70
2013,08,23,16,51,20.80
2013,08,23,16,52,20.90
2013,08,23,16,53,20.90
2013,08,23,16,54,20.90
2013,08,23,16,55,20.90
2013,08,23,16,56,20.90
2013,08,23,16,57,20.90
2013,08,23,16,58,21.00
2013,08,23,16,59,21.10
2013,08,23,17,00,21.10
2013,08,23,17,01,21.10
2013,08,23,17,02,21.10
2013,08,23,17,03,21.10
2013,08,23,17,04,21.20
2013,08,23,17,05,21.20
2013,08,23,17,06,21.10
2013,08,23,17,07,21.10
2013,08,23,17,08,21.10
2013,08,23,17,09,21.10
2013,08,23,17,10,21.00
2013,08,23,17,11,21.00
2013,08,23,17,12,21.00
2013,08,23,17,13,21.00
2013,08,23,17,14,20.90
2013,08,23,17,15,20.80
2013,08,23,17,16,20.80
2013,08,23,17,17,20.70
2013,08,23,17,18,20.60
2013,08,23,17,19,20.60